Location: Asheville, NC
(35.6000°N, 82.5500°W)
Time: 06:28:02
(UTC-04:00)

Vanguard 3 - All Passes

Search period start: 22 July 2018 00:00
Search period end: 01 August 2018 00:00
Orbit: 508 x 3264 km, 33.3° (Epoch: 21 July)

Date Brightness Start Highest point End Pass type
(mag) Time Alt. Az. Time Alt. Az. Time Alt. Az.
22 Jul - 00:36:29 10° W 00:40:49 19° SW 00:44:06 10° S visible
22 Jul - 14:19:51 10° S 14:31:48 20° SE 14:42:20 10° ESE daylight
22 Jul - 16:29:21 10° SW 16:46:57 45° SSE 16:59:10 10° E daylight
22 Jul - 18:45:03 10° WSW 19:01:55 71° SSE 19:11:33 10° E daylight
22 Jul - 21:02:56 10° W 21:15:45 77° S 21:22:39 10° ESE visible
22 Jul - 23:19:54 10° W 23:27:43 39° SSW 23:32:31 10° SE visible
23 Jul - 13:14:27 10° SE 13:15:58 10° SE 13:17:28 10° SE daylight
23 Jul - 15:14:23 10° SSW 15:30:52 34° SE 15:43:59 10° E daylight
23 Jul - 17:27:54 10° SW 17:46:14 62° SSE 17:57:46 10° E daylight
23 Jul - 19:45:21 10° W 20:00:55 80° S 20:09:28 10° E daylight
23 Jul - 22:03:09 10° W 22:14:04 62° SSW 22:20:06 10° ESE visible
24 Jul - 00:20:27 10° W 00:24:51 17° SW 00:28:11 10° S visible
24 Jul - 14:01:09 10° S 14:14:51 24° SE 14:27:11 10° E daylight
24 Jul - 16:11:35 10° SW 16:30:08 51° SSE 16:43:26 10° E daylight
24 Jul - 18:27:40 10° WSW 18:45:30 76° S 18:55:57 10° E daylight
24 Jul - 20:45:50 10° W 20:59:43 76° S 21:07:12 10° ESE visible
24 Jul - 23:03:18 10° W 23:11:46 37° SSW 23:16:56 10° SSE visible
25 Jul - 12:51:29 10° SSE 12:59:04 13° SE 13:06:32 10° ESE daylight
25 Jul - 14:56:29 10° SSW 15:13:53 39° SSE 15:28:13 10° E daylight
25 Jul - 17:10:24 10° WSW 17:29:32 67° SSE 17:42:03 10° E daylight
25 Jul - 19:28:06 10° W 19:44:41 81° S 19:53:57 10° E daylight
25 Jul - 21:46:12 10° W 21:58:04 59° SSW 22:04:37 10° SE visible
26 Jul - 00:04:22 10° W 00:08:46 16° SW 00:12:10 10° S visible
26 Jul - 13:42:57 10° S 13:57:46 28° SE 14:11:36 10° E daylight
26 Jul - 15:54:02 10° SW 16:13:11 56° SSE 16:27:33 10° E daylight
26 Jul - 18:10:18 10° WSW 18:29:00 79° S 18:40:19 10° E daylight
26 Jul - 20:28:41 10° W 20:43:35 75° SSW 20:51:43 10° ESE daylight
26 Jul - 22:46:35 10° W 22:55:42 34° SW 23:01:16 10° SSE visible
27 Jul - 12:32:03 10° SSE 12:42:02 17° SE 12:52:08 10° ESE daylight
27 Jul - 14:38:51 10° SSW 14:56:46 44° SSE 15:12:15 10° E daylight
27 Jul - 16:53:02 10° WSW 17:12:44 71° SSE 17:26:13 10° E daylight
27 Jul - 19:10:49 10° W 19:28:21 81° S 19:38:22 10° E daylight
27 Jul - 21:29:09 10° W 21:41:57 55° SSW 21:49:04 10° SE visible
27 Jul - 23:48:16 10° W 23:52:36 15° SW 23:56:01 10° SSW visible
28 Jul - 13:25:08 10° SSW 13:40:35 32° SE 13:55:42 10° E daylight
28 Jul - 15:36:39 10° SW 15:56:09 61° SSE 16:11:33 10° E daylight
28 Jul - 17:53:02 10° WSW 18:12:23 81° S 18:24:35 10° E daylight
28 Jul - 20:11:27 10° W 20:27:21 72° SSW 20:36:10 10° ESE daylight
28 Jul - 22:29:48 10° W 22:39:30 32° SW 22:45:31 10° SSE visible
29 Jul - 12:13:34 10° S 12:24:54 20° SE 12:36:50 10° E daylight
29 Jul - 14:21:28 10° SW 14:39:33 49° SSE 14:56:06 10° E daylight
29 Jul - 16:35:47 10° WSW 16:55:51 75° SSE 17:10:17 10° E daylight
29 Jul - 18:53:34 10° W 19:11:54 81° S 19:22:44 10° E daylight
29 Jul - 21:12:02 10° W 21:25:41 52° SSW 21:33:26 10° SE visible
29 Jul - 23:32:13 10° WSW 23:36:20 14° SW 23:39:39 10° SSW visible
30 Jul - 13:07:40 10° SSW 13:23:19 36° SE 13:39:30 10° E daylight
30 Jul - 15:19:28 10° SW 15:39:01 65° SSE 15:55:25 10° E daylight
30 Jul - 17:35:49 10° W 17:55:41 82° S 18:08:47 10° E daylight
30 Jul - 19:54:12 10° W 20:10:58 70° SSW 20:20:32 10° ESE daylight
30 Jul - 22:12:58 10° W 22:23:11 30° SW 22:29:40 10° SSE visible
31 Jul - 11:55:42 10° S 12:07:42 23° SE 12:20:59 10° E daylight
31 Jul - 14:04:19 10° SW 14:22:17 53° SSE 14:39:47 10° E daylight
31 Jul - 16:18:41 10° WSW 16:38:53 78° SSE 16:54:17 10° E daylight
31 Jul - 18:36:19 10° W 18:55:20 80° S 19:07:01 10° ESE daylight
31 Jul - 20:54:53 10° W 21:09:18 49° SSW 21:17:43 10° SE visible
31 Jul - 23:16:19 10° WSW 23:19:57 12° SW 23:23:02 10° SSW visible
